Regional Weather Roundup
Issued by NWS

Home | Current Version | Previous Version | Text Only | Print | Product List | Glossary Off
Versions: 1 2 3 4 5 6 7 8 9 10 11 12 13 14 15 16 17 18 19 20 21 22 23 24 25 26 27 28 29 30 31 32 33 34 35 36 37 38 39 40 41 42 43 44 45 46 47 48 49 50

000
ASUS43 KTOP 251108
RWRKS

WEATHER ROUNDUP FOR KANSAS
NATIONAL WEATHER SERVICE GOODLAND KS
600 AM CDT TUE APR 25 2017

NOTE:  "FAIR" INDICATES FEW OR NO CLOUDS BELOW 12,000 FEET WITH NO
SIGNIFICANT WEATHER AND/OR OBSTRUCTIONS TO VISIBILITY.

KSZ001>006-013>018-027>032-041>047-251200-
NORTHWEST KANSAS

CITY           SKY/WX    TMP DP  RH WIND       PRES   REMARKS
GOODLAND         N/A    N/A N/A N/A MISG      29.52R
HAYS           CLEAR     53  48  83 E8        29.41R
HILL CITY      CLOUDY    51  42  71 NE17      29.46R
RUSSELL        MOCLDY    57  48  72 E6        29.39S
$$

KSZ061>065-074>080-084>089-251200-
SOUTHWEST KANSAS

CITY           SKY/WX    TMP DP  RH WIND       PRES   REMARKS
DODGE CITY     CLEAR     44  43  96 N6        29.36R
ELKHART          N/A     53  36  52 W9          N/A
GARDEN CITY    CLEAR     43  41  93 N9        29.37R
GREAT BEND     MOCLDY    54  48  80 E7        29.38S
PRATT          CLOUDY    51  47  85 E3        29.35R
$$

KSZ066>073-081>083-090>101-251200-
SOUTHEAST KANSAS

CITY           SKY/WX    TMP DP  RH WIND       PRES   REMARKS
CHANUTE        CLOUDY    60  46  59 SE15G22   29.46F
COFFEYVILLE    MOCLDY    58  47  66 SE15G23   29.46F
HUTCHINSON     CLOUDY    58  49  72 SE9       29.37F
MEDICINE LODGE   N/A     54  49  83 SE8       29.33S
NEWTON         CLOUDY    57  49  74 SE13      29.40F
PARSONS        PTCLDY    60  46  59 S10G21    29.48F
WICHITA INTL   CLOUDY    58  51  78 SE10      29.37F
WICHITA JABRA  CLOUDY    58  50  75 SE14      29.38F
WICHITA MCCONL CLOUDY    59  49  70 S13       29.38F
WINFIELD       PTCLDY    59  50  72 SE10      29.40F
$$

KSZ007>012-019>026-033>040-048>060-102>105-251200-
NORTHEAST KANSAS

CITY           SKY/WX    TMP DP  RH WIND       PRES   REMARKS
CONCORDIA      MOCLDY    51  47  86 N7        29.44S
EMPORIA        CLOUDY    60  49  66 S16G24    29.44S
LAWRENCE       CLOUDY    59  49  69 E10       29.48F
MANHATTAN      CLOUDY    61  49  64 E6        29.44S
MARYSVILLE     CLOUDY    55  52  88 CALM      29.44F
OLATHE IND     CLOUDY    58  47  66 S7        29.50F
OLATHE EXE     CLOUDY    57  49  74 S7        29.50F
SALINA         MOCLDY    62  50  64 S13       29.39S
TOPEKA BILLARD CLOUDY    59  51  75 SE8       29.45F
TOPEKA FORBES  CLOUDY    61  49  64 SE9       29.45F
$$



USA.gov is the U.S. government's official web portal to all federal, state and local government web resources and services.